Regional Weather Roundup
Issued by NWS

Home | Current Version | Previous Version | Graphics & Text | Print | Product List | Glossary On
Versions: 1 2 3 4 5 6 7 8 9 10 11 12 13 14 15 16 17 18 19 20 21 22 23 24 25 26 27 28 29 30 31 32 33 34 35 36 37 38 39 40 41 42 43 44 45 46 47 48 49 50
000
ASUS43 KMKX 032200
RWRWI

WISCONSIN REGIONAL WEATHER ROUNDUP
NATIONAL WEATHER SERVICE MILWAUKEE/SULLIVAN WI
500 PM CDT THU SEP 03 2015

NOTE: "FAIR" INDICATES FEW OR NO CLOUDS BELOW 12,000 FEET WITH NO
SIGNIFICANT WEATHER AND/OR OBSTRUCTIONS TO VISIBILITY.

WIZ001-002-006>008-014>016-023>028-032300-
NORTHWEST WISCONSIN

CITY           SKY/WX    TMP DP  RH WIND       PRES   REMARKS
SUPERIOR ARPT  FOG       60  59  97 NE8       29.97S VSB 3/4
ASHLAND        SUNNY     69  64  84 NE8       29.98S
HAYWARD        SUNNY     81  65  58 E5        29.95S HX  83
SIREN          SUNNY     83  65  55 E5        29.92F HX  85
CUMBERLAND     SUNNY     79  64  61 SE5       29.94S HX  81
RICE LAKE      MOSUNNY   80  66  61 E5        29.94S HX  82
CHETEK         MOSUNNY   81  69  66 SE6       29.93S HX  84
LADYSMITH      MOSUNNY   83  65  54 SE5       29.96F HX  85
EAU CLAIRE     SUNNY     82  68  62 E9        29.91S HX  85
MENOMONIE      SUNNY     83  68  61 E7        29.91S HX  86
NEW RICHMOND   SUNNY     82  68  63 E12       29.91S HX  84
OSCEOLA        SUNNY     82  68  62 E9        29.93S HX  85
$$

WIZ003>005-009-010-017-018-032300-
NORTH CENTRAL WISCONSIN

CITY           SKY/WX    TMP DP  RH WIND       PRES   REMARKS
MANITOWISH WTR MOSUNNY   79  64  60 SE3       29.99F HX  80
ARBOR VITAE    MOSUNNY   80  64  57 E3        29.98F HX  81
WOODRUFF       MOSUNNY   80  64  57 E3        29.98F HX  81
RHINELANDER    PTSUNNY   77  64  64 E10       30.00R
EAGLE RIVER    CLOUDY    76  62  62 SE6       30.00S
LAND O LAKES   MOSUNNY   79  63  58 E9        30.01S HX  80
PHILLIPS       MOSUNNY   80  65  61 E6        29.96F HX  81
TOMAHAWK       MOSUNNY   79  64  61 E5        29.98S HX  80
MEDFORD        MOSUNNY   75  66  74 E7        29.98S
MERRILL        PTSUNNY   78  67  69 CALM      29.97S HX  80
$$

WIZ029-030-035-036-043>047-032300-
CENTRAL WISCONSIN

CITY           SKY/WX    TMP DP  RH WIND       PRES   REMARKS
WAUSAU         PTSUNNY   77  65  66 E8        29.95S
MOSINEE        PTSUNNY   75  66  73 SE5       29.98R
MARSHFIELD     SUNNY     79  64  60 NE10      29.96S HX  81
STEVENS POINT  CLOUDY    74  64  71 E7        29.97R
WAUPACA        CLOUDY    75  68  78 N7        29.96S
WAUTOMA        NOT AVBL
WISC RAPIDS    MOSUNNY   80  65  59 E9        29.95S HX  82
CAMP DOUGLAS   NOT AVBL
$$

WIZ011>013-019>022-031-037>040-048>050-032300-
NORTHEAST WISCONSIN

CITY           SKY/WX    TMP DP  RH WIND       PRES   REMARKS
ANTIGO         PTSUNNY   74  64  72 E7        29.99S
SHAWANO        NOT AVBL
OCONTO         SUNNY     75  69  82 E6        29.93R
STURGEON BAY   SUNNY     73  64  73 N14G20    29.96R
GREEN BAY      PTSUNNY   75  68  78 N7        29.94S
MANITOWOC      PTSUNNY   72  66  83 MISG      29.93S
APPLETON       PTSUNNY   73  63  68 N9        29.94S
CLINTONVILLE   CLOUDY    75  64  69 N5        29.95S
OSHKOSH        CLOUDY    74  66  76 NE9       29.94S
$$

WIZ032>034-041-042-053>061-032300-
SOUTHWEST WISCONSIN

CITY           SKY/WX    TMP DP  RH WIND       PRES   REMARKS
LA CROSSE      MOSUNNY   89  73  59 E8        29.87S HX  97
SPARTA         SUNNY     86  67  53 E7        29.91S HX  89
VIROQUA          N/A     89  73  59 E6        29.91S HX  96
BOSCOBEL       PTSUNNY   91  73  55 E6        29.87S HX  99
PRAIRIE DU CHI SUNNY     89  69  50 SE5       29.86S HX  94
PLATTEVILLE    MOSUNNY   88  73  61 S3        29.90F HX  96
$$

WIZ056-057-062-063-064-067-068-032300-
SOUTH CENTRAL WISCONSIN

CITY           SKY/WX    TMP DP  RH WIND       PRES   REMARKS
REEDSBURG      MOSUNNY   84  72  67 NE5       29.90F HX  90
BARABOO/DELLS  SUNNY     85  68  57 NE6       29.91F HX  88
LONE ROCK      NOT AVBL
MINERAL POINT  SUNNY     90  72  55 W3        29.91S HX  96
MADISON        PTSUNNY   84  73  69 NE13      29.90S HX  90
MIDDLETON      MOSUNNY  N/A N/A N/A NE8       29.91S
WATERTOWN      MOSUNNY   82  74  78 N8        29.91R HX  87
MONROE         SUNNY     88  72  58 S6        29.90F HX  94
JANESVILLE     PTSUNNY   88  72  58 W7        29.88F HX  94
$$

WIZ051-052-058>065-066-070>072-032300-
SOUTHEAST WISCONSIN

CITY           SKY/WX    TMP DP  RH WIND       PRES   REMARKS
MILWAUKEE      MOSUNNY   74  67  78 NE10      29.91R
WAUKESHA       MOSUNNY   81  70  69 NW9       29.92S HX  84
MILWAUKEE/TIMM PTSUNNY   79  66  65 NE6       29.91S HX  81
RACINE         SUNNY     76  67  73 NE12      29.92R
BURLINGTON     SUNNY     85  70  61 W7        29.89S HX  89
KENOSHA        PTSUNNY   78  70  76 E12       29.90R HX  80
FOND DU LAC    PTSUNNY   76  67  73 NE8       29.94S
SHEBOYGAN      PTSUNNY   77  66  68 N10       29.92F
WEST BEND      SUNNY     77  64  65 CALM      29.92F
JUNEAU         SUNNY     77  67  72 N9        29.94S
$$

LSZ147-162-032300-
LAKE SUPERIOR

STATION/POSITION TIME  TEMP    WIND        PRES    WAVE
                       AIR SEA DIR/SP/G            HT/PER
                 (UTC) (F)     (DEG/KT/KT) (MB)    (FT/S)
W MID LAKE BUOY  2050   59 58   40/  8/ 10 1015.6F   0
DEVILS ISLAND    2100   58      50/  6/  7 1015.7F
PORT WING        2100   59      30/ 15/ 17 1014.9F
SAXON HARBOR     2100   63      40/  7/  9 1015.2R
$$

LMZ867-665-643>646-032300-
LAKE MICHIGAN

STATION/POSITION TIME  TEMP    WIND        PRES    WAVE
                       AIR SEA DIR/SP/G            HT/PER
                 (UTC) (F)     (DEG/KT/KT) (MB)    (FT/S)
CHAMBERS ISLAND  2100   69      30/  9/ 10 1013.5F
S GREEN BAY BUOY 2100   68 67   60/ 10/ 14 1015.0F
N MID LAKE BUOY  2050   68 67   20/  8/  8 1013.1F   1/ 4
NORTHPORT PIER   2100   72     320/  3/  5 1013.9S
SISTER BAY       2111   73     350/ 13/ 15   N/A
ALGOMA LAKESHORE 2114           70/ 11/ 13   N/A
KEWAUNEE LAKESHO 2100   65      20/  6/ 11 1012.7R
SHEBOYGAN LAKESH 2100   73     360/  7/  8 1013.2F
PORT WASHINGTON  2100          350/  7/ 13 1013.2F
ATWATER BUOY     2100   60     310/  4/  4 1014.2F
MILWAUKEE LAKESH 2110   66      30/ 10/ 11   N/A
S MID LAKE BUOY  2050   74 74  350/ 10/ 12 1011.5F   1
KENOSHA   LAKESH 2100           20/ 13/ 15 1011.5S
$$

TC  - TEMPERATURE IN CELSIUS
VSB - VISIBILITY IN STATUTE MILES
WCI - WIND CHILL INDEX
HX  - HEAT INDEX




USA.gov is the U.S. government's official web portal to all federal, state and local government web resources and services.